Weather History for New Philadelphia, OH

Change the Weather History Date:

Tuesday, December 24, 2013

  Actual Average Record
Temperature  
Mean Temperature 22 °F 30 °F  
Max Temperature 30 °F 38 °F 57 °F (1964)
Min Temperature 14 °F 22 °F -13 °F (1989)
Degree Days  
Heating Degree Days 43 35  
Month to date heating degree days 741 757  
Since 1 July heating degree days 1977 1915  
Cooling Degree Days 0 0  
Month to date cooling degree days 0 0  
Year to date cooling degree days 755 697  
Moisture  
Dew Point 13 °F    
Average Humidity 70    
Maximum Humidity 81    
Minimum Humidity 58    
Precipitation  
Precipitation T in 0.09 in 1.07 in (2008)
Month to date precipitation 3.17 2.11  
Year to date precipitation 34.41 38.34  
Sea Level Pressure  
Sea Level Pressure 30.39 in    
Wind  
Wind Speed 7 mph (WNW)    
Max Wind Speed 17 mph    
Max Gust Speed 26 mph    
Visibility 7 miles    
Events Snow    
T = Trace of Precipitation, MM = Missing Value Source: NWS Daily Summary

Daily Weather History Graph

Daily Weather History Graph

Search for Another Location

Airport:

Trip Planner

Search our weather history database for the weather conditions in past years. The results will help you decide how hot, cold, wet, or windy it might be!

Date:

Astronomy

Dec. 24, 2013 Rise Set
Actual Time 7:46 AM EST 5:04 PM EST
Civil Twilight 7:16 AM EST 5:34 PM EST
Nautical Twilight 6:41 AM EST 6:09 PM EST
Astronomical Twilight 6:08 AM EST 6:42 PM EST
Moon No Moon Rise 11:39 AM EST (12/24)
Length of Visible Light 10h 18m
Length of Day
9h 17m
Waning Gibbous, 59% of the Moon is Illuminated
Dec 24
Waning Gibbous
Dec 25
Last Quarter
Jan 1
New
Jan 7
First Quarter
Jan 15
Full

Hourly Weather History & Observations

Time (EST) Temp. Windchill Dew Point Humidity Pressure Visibility Wind Dir Wind Speed Gust Speed Precip Events Conditions
12:53 AM 28.9 °F 21.9 °F 17.1 °F 61% 30.33 in 10.0 mi WNW 6.9 mph - N/A   Overcast
1:12 AM 28.4 °F 21.2 °F 17.6 °F 64% 30.30 in 10.0 mi West 6.9 mph - N/A   Overcast
1:53 AM 28.9 °F 22.8 °F 18.0 °F 64% 30.32 in 10.0 mi WNW 5.8 mph - N/A   Overcast
2:42 AM 28.4 °F 22.2 °F 17.6 °F 64% 30.29 in 10.0 mi West 5.8 mph - N/A   Overcast
2:53 AM 28.0 °F 21.7 °F 17.1 °F 63% 30.32 in 10.0 mi West 5.8 mph - N/A   Overcast
3:53 AM 27.0 °F 21.6 °F 19.0 °F 72% 30.32 in 4.0 mi West 4.6 mph - 0.00 in Snow Light Snow
4:02 AM 26.6 °F 21.2 °F 19.4 °F 74% 30.28 in 2.5 mi West 4.6 mph - 0.00 in Snow Light Snow
4:43 AM 26.6 °F 20.0 °F 21.2 °F 80% 30.27 in 3.0 mi West 5.8 mph - 0.00 in Snow Light Snow
4:53 AM 26.1 °F - 21.0 °F 81% 30.31 in 3.0 mi Calm Calm - 0.00 in Snow Light Snow
4:59 AM 26.6 °F 21.2 °F 21.2 °F 80% 30.27 in 4.0 mi West 4.6 mph - 0.00 in Snow Light Snow
5:28 AM 26.6 °F 22.6 °F 21.2 °F 80% 30.27 in 3.0 mi West 3.5 mph - 0.00 in Snow Light Snow
5:45 AM 26.6 °F 18.2 °F 19.4 °F 74% 30.27 in 6.0 mi WNW 8.1 mph - 0.00 in Snow Light Snow
5:53 AM 26.1 °F 19.4 °F 19.0 °F 75% 30.31 in 5.0 mi West 5.8 mph - 0.00 in Snow Light Snow
6:07 AM 26.6 °F 20.0 °F 19.4 °F 74% 30.27 in 5.0 mi WNW 5.8 mph - 0.00 in Snow Light Snow
6:16 AM 24.8 °F 13.4 °F 17.6 °F 74% 30.28 in 1.8 mi WNW 12.7 mph 20.7 mph 0.00 in Snow Light Snow
6:24 AM 24.8 °F 14.0 °F 17.6 °F 74% 30.28 in 1.5 mi WNW 11.5 mph 17.3 mph 0.00 in Snow Light Snow
6:33 AM 21.2 °F 7.3 °F 17.6 °F 86% 30.29 in 1.0 mi WNW 16.1 mph 25.3 mph 0.00 in Snow Light Snow
6:42 AM 21.2 °F 8.9 °F 15.8 °F 80% 30.30 in 1.0 mi NW 12.7 mph 21.9 mph 0.00 in Snow Light Snow
6:51 AM 21.2 °F 7.8 °F 15.8 °F 80% 30.31 in 1.2 mi WNW 15.0 mph 20.7 mph 0.00 in Snow Light Snow
6:53 AM 21.0 °F 8.6 °F 15.1 °F 78% 30.35 in 1.2 mi WNW 12.7 mph 20.7 mph 0.00 in Snow Light Snow
7:05 AM 19.4 °F 7.2 °F 14.0 °F 80% 30.31 in 2.5 mi WNW 11.5 mph 19.6 mph 0.00 in Snow Light Snow
7:23 AM 19.4 °F 8.6 °F 12.2 °F 74% 30.32 in 4.0 mi WNW 9.2 mph 18.4 mph 0.00 in Snow Light Snow
7:33 AM 19.4 °F 9.5 °F 12.2 °F 74% 30.33 in 8.0 mi WNW 8.1 mph - 0.00 in Snow Light Snow
7:53 AM 19.9 °F 8.6 °F 9.0 °F 62% 30.38 in 10.0 mi WNW 10.4 mph 18.4 mph 0.00 in   Overcast
8:53 AM 18.0 °F 6.1 °F 6.1 °F 60% 30.40 in 10.0 mi WNW 10.4 mph 18.4 mph N/A   Clear
9:53 AM 17.1 °F 3.6 °F 6.1 °F 62% 30.44 in 10.0 mi WNW 12.7 mph 17.3 mph N/A   Clear
10:17 AM 17.6 °F 3.7 °F 6.8 °F 63% 30.41 in 10.0 mi NW 13.8 mph 20.7 mph N/A   Mostly Cloudy
10:53 AM 17.1 °F 6.6 °F 7.0 °F 65% 30.46 in 10.0 mi WNW 8.1 mph - N/A   Overcast
11:53 AM 17.1 °F 5.8 °F 7.0 °F 65% 30.47 in 10.0 mi WNW 9.2 mph - N/A   Overcast
12:53 PM 18.0 °F 7.7 °F 8.1 °F 65% 30.46 in 10.0 mi NW 8.1 mph - N/A   Overcast
1:53 PM 18.0 °F 6.1 °F 8.1 °F 65% 30.48 in 10.0 mi NW 10.4 mph - N/A   Overcast
2:53 PM 18.0 °F 6.9 °F 8.1 °F 65% 30.49 in 10.0 mi West 9.2 mph - N/A   Overcast
3:53 PM 19.0 °F 9.0 °F 8.1 °F 62% 30.51 in 10.0 mi WNW 8.1 mph - N/A   Overcast
4:53 PM 18.0 °F 9.8 °F 8.1 °F 65% 30.54 in 10.0 mi West 5.8 mph 16.1 mph N/A   Overcast
5:53 PM 18.0 °F 7.7 °F 8.1 °F 65% 30.57 in 10.0 mi WNW 8.1 mph - N/A   Overcast
6:53 PM 17.1 °F 5.8 °F 7.0 °F 65% 30.59 in 8.0 mi NW 9.2 mph - 0.00 in Snow Light Snow
7:53 PM 16.0 °F 4.4 °F 6.1 °F 65% 30.61 in 10.0 mi NNW 9.2 mph - 0.00 in   Overcast
8:51 PM 15.8 °F 10.2 °F 6.8 °F 68% 30.54 in 10.0 mi WSW 3.5 mph - N/A   Overcast
8:53 PM 16.0 °F 10.4 °F 5.0 °F 62% 30.60 in 10.0 mi WSW 3.5 mph - N/A   Overcast
9:53 PM 16.0 °F - 7.0 °F 68% 30.58 in 10.0 mi Calm Calm - N/A   Overcast
10:53 PM 15.1 °F - 6.1 °F 68% 30.56 in 10.0 mi Calm Calm - N/A   Partly Cloudy
11:53 PM 14.0 °F - 7.0 °F 74% 30.56 in 10.0 mi Calm Calm - N/A   Clear